Regional Weather Roundup
Issued by NWS Cleveland, OH

Home | Current Version | Previous Version | Text Only | Print | Product List | Glossary Off
Versions: 1 2 3 4 5 6 7 8 9 10 11 12 13 14 15 16 17 18 19 20 21 22 23 24 25 26 27 28 29 30 31 32 33 34 35 36 37 38 39 40 41 42 43 44 45 46 47 48 49 50

000
ASUS41 KCLE 271210
RWRCLE
OHIO REGIONAL WEATHER ROUNDUP
NATIONAL WEATHER SERVICE WILMINGTON, OH
800 AM EDT WED AUG 27 2014

NOTE: "FAIR" INDICATES FEW OR NO CLOUDS BELOW 12,000 FEET WITH NO
SIGNIFICANT WEATHER AND/OR OBSTRUCTIONS TO VISIBILITY.

OHZ001>008-015>018-024>027-034-035-043-044-271300-
   NORTHWEST OHIO

CITY           SKY/WX    TMP DP  RH WIND       PRES   REMARKS
DEFIANCE       MOSUNNY   69  66  90 N3        30.11S
FINDLAY        FOG       69  68  96 CALM      30.10R VSB 1
TOLEDO EXPRESS CLOUDY    67  64  90 N7        30.11R
TOLEDO METCALF CLOUDY    71  66  84 NW5       30.11R
LIMA           PTSUNNY   72  69  90 CALM      30.11S FOG
$$

OHZ009>014-019>023-028>033-038-089-271300-
   NORTHEAST OHIO

CITY           SKY/WX    TMP DP  RH WIND       PRES   REMARKS
CLE-HOPKINS    CLOUDY    73  69  87 CALM      30.11R FOG
CLE-LAKEFRONT  CLOUDY    73  69  87 CALM      30.08R
CUY CO. ARPT   CLOUDY    73  72  94 VRB3      30.10R FOG
LORAIN-ELYRIA  CLOUDY    75  70  84 CALM      30.10R
ASHTABULA      CLOUDY    71  69  93 CALM      30.09S FOG
AKRON-CANTON   MOSUNNY   72  67  84 CALM      30.10R HAZE
WOOSTER        CLOUDY    70  68  93 CALM      30.11S FOG
MANSFIELD      PTSUNNY   72  72 100 CALM      30.12S FOG
YOUNGSTOWN     PTSUNNY   69  67  93 CALM      30.10S FOG
$$

OHZ042-051>053-060>062-070>072-077>081-271300-
  SOUTHWEST OHIO

CITY           SKY/WX    TMP DP  RH WIND       PRES   REMARKS
CINC-COVINGTON MOSUNNY   72  69  90 CALM      30.11R FOG
CINC-LUNKEN    MOSUNNY   69  69 100 CALM      30.10S FOG
HAMILTON       MOSUNNY   71  69  93 CALM      30.11R FOG
DAYTON         PTSUNNY   73  69  87 CALM      30.12R
WRIGHT-PAT AFB MOSUNNY   71  69  93 NW1       30.10S
DAYTON GENERAL MOSUNNY   72  70  93 CALM      30.10S FOG
WILMINGTON     MOSUNNY   70  65  84 CALM      30.11R
$$

OHZ036-037-039>041-045>050-054>059-063>069-073>076-082>088-271300-
  CENTRAL AND SOUTHEAST OHIO

CITY           SKY/WX    TMP DP  RH WIND       PRES   REMARKS
COLUMBUS       MOSUNNY   73  66  78 CALM      30.09S
OSU AIRPORT    SUNNY     72  69  90 CALM      30.10S FOG
BOLTON FIELD   SUNNY     68  68 100 CALM      30.11S
RICKENBACK AFB SUNNY     69  63  82 S3        30.09F
NEWARK         SUNNY     68  65  90 CALM      30.10S FOG
MARION         FOG       69  68  96 CALM      30.11R VSB<1/4
LANCASTER      SUNNY     69  66  90 CALM      30.11R FOG
ZANESVILLE     SUNNY     67  64  90 S3        30.10S FOG
NEW PHILLY     SUNNY     69  68  96 CALM      30.10S FOG
$$


USA.gov is the U.S. government's official web portal to all federal, state and local government web resources and services.